Overview Statistics Trail Chart Weather Telemetry Raw packets
 

This is the latest recevied weather packets stored in our database for station/object KC1TEM-13. If no packets are shown the sender has not sent any weather packets the latest 10 day(s).

<< 1 2 3 4 5 >>
Time Temp. Humidity Pressure Rain* Wind** Luminosity Snow
1788622929 20.56° C 77% 1011.3 hPa 0 mm - 217 W/m² -
1788622625 20.56° C 79% 1011.2 hPa 0 mm - 147 W/m² -
1788622320 20.56° C 77% 1011.1 hPa 0 mm - 125 W/m² -
1788622015 20.56° C 78% 1011 hPa 0 mm - 138 W/m² -
1788621709 21.11° C 78% 1011.4 hPa 0 mm - 216 W/m² -
1788621404 21.11° C 76% 1011.2 hPa 0 mm - 234 W/m² -
1788621100 21.11° C 76% 1011.1 hPa 0 mm - 226 W/m² -
1788620795 21.11° C 75% 1011.3 hPa 0 mm - 214 W/m² -
1788620493 21.11° C 75% 1011.2 hPa 0 mm - 193 W/m² -
1788620192 21.11° C 75% 1011.2 hPa 0 mm - 216 W/m² -
1788619891 21.11° C 74% 1011.4 hPa 0 mm - 255 W/m² -
1788619586 21.11° C 76% 1011.3 hPa 0 mm - 291 W/m² -
1788619285 21.11° C 76% 1011.3 hPa 0 mm - 306 W/m² -
1788618995 21.11° C 75% 1011.1 hPa 0 mm - 272 W/m² -
1788618675 20.56° C 74% 1011.3 hPa 0 mm - 240 W/m² -
1788618374 20.56° C 74% 1011.2 hPa 0 mm - 277 W/m² -
1788618073 20.56° C 77% 1011.3 hPa 0 mm - 262 W/m² -
1788617773 20.56° C 73% 1011.2 hPa 0 mm - 255 W/m² -
1788617470 21.11° C 74% 1011.2 hPa 0 mm - 224 W/m² -
1788617170 21.11° C 72% 1011.1 hPa 0 mm - 271 W/m² -
1788616869 21.11° C 75% 1011.2 hPa 0 mm - 306 W/m² -
1788616564 21.67° C 75% 1010.9 hPa 0 mm - 293 W/m² -
1788616259 21.67° C 75% 1011 hPa 0 mm - 582 W/m² -
1788615954 21.67° C 72% 1010.9 hPa 0 mm - 678 W/m² -
1788615669 21.11° C 75% 1011.1 hPa 0 mm - 565 W/m² -

* Rain latest hour (hover to see other rain measurements)
** Current wind speed in m/s (hover to see current wind gust speed)